Regional Weather Roundup
Issued by NWS

Home | Current Version | Previous Version | Graphics & Text | Print | Product List | Glossary On
Versions: 1 2 3 4 5 6 7 8 9 10 11 12 13 14 15 16 17 18 19 20 21 22 23 24 25 26 27 28 29 30 31 32 33 34 35 36 37 38 39 40 41 42 43 44 45 46 47 48 49 50
000
ASUS43 KFSD 261510
RWRSD

WEATHER ROUNDUP FOR SOUTH DAKOTA
NATIONAL WEATHER SERVICE SIOUX FALLS SD
1000 AM CDT WED APR 26 2017

NOTE: "FAIR" INDICATES FEW OR NO CLOUDS BELOW 12,000 FEET WITH NO
SIGNIFICANT WEATHER AND/OR OBSTRUCTIONS TO VISIBILITY.


SDZ001>005-009-010-012>017-261600-
NORTHWEST AND NORTH CENTRAL SOUTH DAKOTA

CITY           SKY/WX    TMP DP  RH WIND       PRES   REMARKS
BUFFALO          N/A     33  24  69 NE8       29.80S WCI  26
FAITH            N/A     32  26  78 N14       29.85F WCI  22
MOBRIDGE       CLOUDY    34  23  64 N14       29.81R WCI  25
$$

SDZ012>016-024>037-041>051-057-063-072>074-261600-
SOUTHWEST AND SOUTH CENTRAL SOUTH DAKOTA

CITY           SKY/WX    TMP DP  RH WIND       PRES   REMARKS
RAPID CTY ARPT CLOUDY    29  23  78 NW14      29.88R WCI  18
PIERRE         CLOUDY    34  27  75 N20       29.81F WCI  23
CUSTER         MOSUNNY   26  24  92 SE3       29.76F
ELLSWORTH AFB  CLOUDY    29  25  87 NW14      29.86S WCI  18
PHILIP         CLOUDY    33  27  78 N17       29.87F WCI  22
PINE RIDGE     CLOUDY    32  25  75 N9        29.87F WCI  24
SPEARFISH      FAIR      25  21  86 SW3       29.85F
WINNER         CLOUDY    34  29  82 NW22G30   29.79F WCI  22
$$

SDZ004>011-016>023-039-040-261600-
NORTHEAST SOUTH DAKOTA

CITY           SKY/WX    TMP DP  RH WIND       PRES   REMARKS
ABERDEEN       SNOW      29  26  89 N17       29.78S VSB 1/2 WCI  17
WATERTOWN      CLOUDY    30  27  88 N20       29.67S WCI  17
BROOKINGS      CLOUDY    31  28  89 N17G25    29.66R WCI  19
SISSETON         N/A     30  28  92 N23       29.71R WCI  17
$$

SDZ017-020-022-023-036>040-048>070-261600-
SOUTHEAST SOUTH DAKOTA

CITY           SKY/WX    TMP DP  RH WIND       PRES   REMARKS
SIOUX FALLS    CLOUDY    35  33  92 NW15      29.66S WCI  25
HURON          CLOUDY    33  28  81 N18G29    29.75R WCI  22
CHAMBERLAIN    CLOUDY    36  30  79 NW22G29   29.77F
MITCHELL       CLOUDY    35  28  75 NW20      29.75S WCI  24
YANKTON        CLOUDY    34  28  80 NW20G29   29.70F WCI  22
$$

ABBREVIATIONS USED IN REMARKS
   TC - TEMPERATURE IN CELSIUS
  WCI - WIND CHILL INDEX
   HX - HEAT INDEX
  VSB - VISIBILITY





USA.gov is the U.S. government's official web portal to all federal, state and local government web resources and services.